Location: Pedholt
(56.0260°N, 10.2097°E)
Time: 20:35:37
(UTC+00:00)

SR - Pass Details

Date: 28 July 2021
Orbit: 581 x 873 km, 66.7° (Epoch: 27 September)

Event Time Altitude Azimuth Distance (km) Brightness Sun altitude
Rises 08:48:36 0° 254° (WSW) 3,405 ? 42.7°
Reaches altitude 10° 08:51:17 10° 262° (W) 2,440 ? 43.0°
Maximum altitude 08:56:34 40° 331° (NNW) 1,156 ? 43.6°
Drops below altitude 10° 09:01:31 10° 41° (NE) 2,276 ? 44.1°
Sets 09:03:57 0° 50° (NE) 3,152 ? 44.4°
